Regional Weather Roundup
Issued by NWS

Home | Current Version | Previous Version | Graphics & Text | Print | Product List | Glossary On
Versions: 1 2 3 4 5 6 7 8 9 10 11 12 13 14 15 16 17 18 19 20 21 22 23 24 25 26 27 28 29 30 31 32 33 34 35 36 37 38 39 40 41 42 43 44 45 46 47 48 49 50
000
ASUS43 KDMX 141003
RWRIA

WEATHER ROUNDUP FOR IOWA
NATIONAL WEATHER SERVICE DES MOINES IA
400 AM CST SUN FEB 14 2016

NOTE: "FAIR" INDICATES FEW OR NO CLOUDS BELOW 12,000 FEET WITH NO
SIGNIFICANT WEATHER AND/OR OBSTRUCTIONS TO VISIBILITY.

* - THESE STATIONS ARE NOT NWS STATIONS...THUS NOT UNDER NWS
QUALITY CONTROL.  THEY ALSO DO NOT REPORT WEATHER SUCH
AS PRECIPITATION OR FOG.

IAZ001>003-012>014-020>022-031>034-043>046-141100-
   NORTHWEST IOWA

CITY           SKY/WX    TMP DP  RH WIND       PRES   REMARKS
CARROLL *      CLOUDY    16  10  79 SE18      30.03F WCI  -1
CHEROKEE *     CLOUDY    14  10  85 SE12      29.99F WCI   0
DENISON *      LGT SNOW  16  12  86 SE12G18   29.97F VSB 3/4 WCI   3
LE MARS *      CLOUDY    16  12  86 SE13      29.97F WCI   2
ORANGE CITY *  LGT SNOW  12  12 100 SE13      29.95F VSB 3/4 WCI  -3
SHELDON *      LGT SNOW  12  10  92 SE22      29.95F WCI  -7
SIOUX CITY     CLOUDY    19   7  59 S16       29.97F WCI   4
SPENCER        CLOUDY    13   8  81 SE20      30.00F HAZE    WCI  -5
STORM LAKE *   CLOUDY    12  12 100 SE24G30   29.98F WCI  -8
$$

IAZ055>058-069>071-079>083-090>094-141100-
   SOUTHWEST IOWA

CITY           SKY/WX    TMP DP  RH WIND       PRES   REMARKS
ATLANTIC *     CLOUDY    19   7  58 S12G17    30.03F WCI   7
AUDUBON *      CLOUDY    18  10  73 SE10      30.02F WCI   6
CLARINDA *     CLOUDY    21   5  49 SE13      30.07F WCI   9
COUNCIL BLFS * CLOUDY    19  10  68 SE18G26   29.98F WCI   4
CRESTON *      CLOUDY    18   7  62 SE20      30.04F WCI   1
HARLAN  *      LGT SNOW  18  12  79 SE17      30.03F WCI   2
LAMONI         CLOUDY    19   6  57 SE12      30.08F WCI   7
RED OAK *      CLOUDY    21   7  53 SE15G21   30.03F WCI   8
SHENANDOAH *   CLOUDY    21   7  53 SE12G21   30.04F WCI   9
$$

IAZ047>049-059>061-072>074-084-141100-
   CENTRAL IOWA

CITY           SKY/WX    TMP DP  RH WIND       PRES   REMARKS
AMES           CLOUDY    15  11  83 SE16      30.11F WCI  -1
ANKENY *       CLOUDY    16  10  79 SE14G21   30.12F WCI   1
BOONE *        CLOUDY    14  10  85 SE25      30.06F FOG     WCI  -5
CHARITON *     CLOUDY    18  10  73 SE14      30.11F WCI   4
DES MOINES     CLOUDY    17   9  70 SE16      30.11F WCI   2
GRINNELL*      CLOUDY    16  12  86 SE18      30.16F WCI  -1
KNOXVILLE *    CLOUDY    16   9  73 SE13G23   30.12F WCI   2
MARSHALLTOWN   CLOUDY    15  10  80 SE18      30.13F WCI  -2
NEWTON *       FLURRIES  16  12  86 SE20G26   30.15F WCI  -1
PELLA *        CLOUDY    17  12  82 SE15      30.16F WCI   2
$$

IAZ004>006-015-016-023>025-035-036-141100-
   NORTH CENTRAL IOWA

CITY           SKY/WX    TMP DP  RH WIND       PRES   REMARKS
ALGONA *       CLOUDY    14  12  92 SE22G29   30.04F FOG     WCI  -4
CLARION *      LGT SNOW  14  10  85 SE23G32   30.08F WCI  -5
ESTHERVILLE    CLOUDY    12  10  92 SE23      30.01F FOG     WCI  -7
FORT DODGE *   CLOUDY    14   9  79 SE13G21   30.06F WCI   0
MASON CITY     LGT SNOW  12   8  84 SE20      30.11F FOG     WCI  -6
FOREST CITY *  LGT SNOW  14  10  85 SE20G26   30.08F WCI  -3
WEBSTER CITY * LGT SNOW  14  12  92 SE24      30.06F WCI  -5
IOWA FALLS *   LGT SNOW  16  12  86 SE20      30.12F WCI  -1
$$

IAZ007>011-017>019-026>030-037>042-050>054-066-141100-
   NORTHEAST IOWA

CITY           SKY/WX    TMP DP  RH WIND       PRES   REMARKS
CEDAR RAPIDS   MIX PCPN  16  11  80 SE13G21   30.21F WCI   2
CHARLES CITY * CLOUDY    12  10  92 SE20      30.16F WCI  -6
CLINTON *      CLOUDY    16   5  62 SE14      30.30F WCI   2
DUBUQUE        CLOUDY    13   3  64 SE14      30.26F WCI  -2
MONTICELLO *   FLURRIES  16   7  67 SE13      30.25F WCI   2
OELWEIN *      CLOUDY    14   9  79 SE21      30.19F FOG     WCI  -4
WATERLOO       CLOUDY    15   8  73 SE13      30.19F WCI   1
$$

IAZ064-065-067-068-078-141100-
   EAST CENTRAL IOWA

CITY           SKY/WX    TMP DP  RH WIND       PRES   REMARKS
DAVENPORT      CLOUDY    18   2  49 SE20      30.28F WCI   2
IOWA CITY      FLURRIES  16  12  84 SE15      30.27F WCI   1
MT. PLEASANT * CLOUDY    19  16  86 E14       30.25F WCI   6
MUSCATINE *    CLOUDY    18  12  79 SE12G18   30.29F WCI   5
QUAD CITIES    CLOUDY    18   5  57 SE15      30.30F WCI   4
$$

IAZ062-063-075>077-085>089-095>099-141100-
   SOUTHEAST IOWA

CITY           SKY/WX    TMP DP  RH WIND       PRES   REMARKS
BURLINGTON     CLOUDY    16  13  88 SE13      30.28F FOG     WCI   2
FAIRFIELD *    CLOUDY    16  10  79 SE20      30.20F WCI  -1
FORT MADISON * CLOUDY    16  12  86 E15       30.26F WCI   1
KEOKUK *       CLOUDY    19  14  79 SE15      30.25F WCI   5
OSKALOOSA *    CLOUDY    16  12  86 SE20G26   30.18F WCI  -1
OTTUMWA        CLOUDY    16  12  84 SE18      30.17F WCI   0
WASHINGTON *   CLOUDY    16  12  86 SE16G24   30.24F FOG     WCI   0
$$

ABBREVIATIONS USED IN REMARKS
   TC - TEMPERATURES IN CELSIUS
  WCI - WIND CHILL INDEX
   HX - HEAT INDEX
  VSB - VISIBILITY
$$




USA.gov is the U.S. government's official web portal to all federal, state and local government web resources and services.